Wind_Speed
39 35 36 36 37 36 36 38 36 34 34 36 38 39 40 40 41 44 46 45 45 47 48 49 50 50 51 51 49 49 49 49 48 46 44 45 45 45 45 45 45 44 42
37 37 37 33 32 33 34 35 35 36 38 39 40 40 41 42 40 36 33 33 35 38 39 41 42 42 43 44 45 45 45 46 46 44 44 44 44 45 45 45 46 45 41
43 40 37 37 37 39 40 42 41 40 40 40 39 39 38 36 35 35 36 37 40 41 42 44 46 47 49 50 50 50 49 49 47 46 45 44 44 43 43 43 42 41 37
43 44 44 44 43 43 44 45 44 43 44 43 43 42 40 39 39 40 42 42 42 43 45 47 48 48 50 51 51 50 49 48 46 44 42 41 41 41 39 40 40 39 38
46 47 48 49 50 50 49 50 49 49 46 44 45 45 45 43 43 43 43 43 43 44 44 41 41 41 42 42 43 43 43 43 42 41 41 41 40 39 40 40 38 37 36
55 56 55 54 54 55 55 54 53 50 48 47 47 46 45 46 45 44 42 41 41 40 40 40 41 40 40 41 41 40 40 40 41 41 42 41 42 40 39 36 35 36 40
59 57 58 61 61 59 59 57 55 54 53 51 51 48 47 45 45 43 40 39 40 41 42 43 43 43 44 43 41 40 40 40 40 40 40 38 36 34 34 37 36 36 39
56 56 55 54 53 54 53 53 52 51 50 50 49 49 47 46 46 44 43 43 45 45 46 47 45 44 45 46 42 40 40 39 38 38 37 36 34 32 32 30 29 33 34
56 56 56 56 55 53 51 50 49 49 49 50 48 48 46 46 45 45 45 45 44 45 45 46 45 45 46 45 42 40 39 38 36 35 35 34 32 31 26 28 27 34 35
56 55 57 58 56 55 54 52 49 49 48 49 49 48 47 47 47 47 47 46 46 47 47 46 47 46 45 44 41 38 38 36 33 33 29 28 27 26 27 26 26 23 31
56 56 56 57 57 58 55 50 49 49 48 49 50 49 48 48 47 48 47 46 46 47 47 46 46 46 44 42 39 37 36 32 31 28 23 24 25 22 23 24 22 24 28
57 57 56 58 55 53 54 54 54 53 53 51 50 49 49 47 47 47 47 47 46 47 46 43 42 42 40 39 37 35 31 31 29 29 26 22 17 16 17 16 17 19 18
53 52 53 52 52 54 54 52 53 53 52 52 51 49 48 48 48 47 46 44 44 42 41 41 39 38 36 35 34 32 29 27 28 24 19 15 14 14 14 14 15 17 18
58 57 55 53 51 51 50 52 53 51 50 49 48 47 47 47 47 45 44 42 41 42 40 38 36 36 35 33 32 29 27 26 25 20 20 18 18 16 17 18 20 20 20
54 54 54 55 55 54 51 51 51 51 49 48 48 48 48 47 46 44 42 42 41 39 39 39 39 36 34 34 31 28 27 26 25 24 22 19 19 19 18 19 19 20 21
53 55 54 52 50 51 54 53 50 51 51 49 47 47 47 47 45 43 42 40 41 39 38 39 38 38 33 30 29 26 28 27 25 26 22 21 20 20 20 21 22 24 26
57 58 55 54 53 50 49 49 54 51 52 50 47 45 44 45 45 43 42 39 37 36 31 33 31 34 35 31 30 26 28 27 27 26 23 21 22 22 22 24 25 27 28
56 56 60 57 54 52 50 48 48 54 50 50 48 46 44 43 43 44 42 39 37 37 36 32 31 32 30 29 28 27 28 27 26 25 24 24 23 24 26 28 29 30 31
46 47 52 59 58 54 51 49 47 50 52 50 48 47 45 43 42 42 41 39 38 35 33 31 30 29 29 29 28 27 27 26 26 25 25 25 26 28 29 30 30 30 29
51 49 47 52 59 59 54 50 49 48 52 48 46 42 45 44 43 42 41 39 36 34 32 29 31 30 31 29 28 29 28 27 26 26 27 29 29 29 30 30 30 28 28
50 52 52 50 60 60 59 53 49 50 50 51 47 44 41 47 46 43 40 39 37 36 34 31 29 24 31 33 30 31 30 27 28 29 31 30 30 31 31 30 28 28 28
43 43 46 50 56 63 61 58 51 50 49 52 52 52 44 47 46 43 41 40 38 35 33 28 30 27 20 23 26 31 30 30 31 31 30 31 32 31 30 29 28 29 32
33 35 37 43 52 63 62 60 57 50 50 50 53 55 50 46 41 39 37 37 36 36 35 30 28 26 25 23 21 24 29 31 32 32 31 32 31 31 29 28 30 32 32
32 27 29 36 48 59 63 61 58 51 49 49 51 50 50 48 45 37 33 31 31 34 35 33 30 29 27 26 27 28 30 31 31 30 31 31 30 29 30 30 32 32 33
24 22 27 28 37 53 59 60 59 53 45 48 48 47 46 43 39 39 37 34 30 28 30 33 32 30 28 27 28 29 29 29 29 31 30 30 29 30 32 33 35 36 38
24 27 30 20 25 45 54 57 58 53 46 45 47 45 43 40 38 38 37 37 33 31 30 30 32 31 30 29 29 29 29 29 29 29 29 27 29 33 34 37 39 39 42
Wind_Direction
251 252 255 256 256 256 256 259 258 259 260 262 263 266 273 281 279 280 281 284 285 287 286 287 289 288 288 289 289 287 286 286 285 283 282 281 280 280 280 281 281 279 278
244 251 254 253 256 257 260 260 258 258 258 259 263 268 271 275 277 277 279 283 287 289 291 290 290 289 287 286 286 285 286 286 286 287 286 284 282 281 282 283 284 288 289
249 249 252 255 258 261 261 261 262 264 266 266 268 268 269 268 271 276 279 283 286 288 289 288 286 286 286 286 286 286 287 288 287 287 286 285 284 282 282 282 281 282 284
243 246 250 253 256 259 261 261 261 262 264 267 270 272 270 269 270 273 278 280 281 281 282 284 285 287 287 288 289 288 287 285 284 284 284 284 284 284 285 284 283 280 278
246 250 253 256 256 259 260 259 258 257 257 258 259 260 261 263 268 270 272 275 279 279 281 286 289 291 293 292 289 287 286 284 283 282 281 282 282 282 285 284 279 277 272
258 256 255 254 256 257 257 258 260 261 261 261 260 259 262 264 266 269 271 275 277 280 279 280 285 290 293 294 294 292 289 286 284 285 284 285 285 281 283 280 280 276 275
262 264 263 261 258 257 259 261 264 264 262 261 261 261 263 265 267 268 270 275 278 279 278 280 284 287 289 290 292 291 289 291 289 288 287 285 281 281 281 279 274 275 277
267 266 265 264 264 263 263 262 262 261 261 261 261 261 262 263 266 267 270 273 274 277 279 281 282 285 288 290 292 293 294 292 290 288 285 286 282 276 285 280 280 275 274
267 267 267 266 265 265 264 262 260 259 257 256 256 258 260 260 261 264 268 273 276 278 279 281 283 284 285 287 290 292 293 292 291 289 288 287 280 275 283 276 284 281 279
263 264 264 263 262 260 261 261 260 260 259 258 257 257 258 258 260 264 268 272 276 277 279 281 283 283 283 285 288 289 289 287 288 290 287 282 279 279 281 274 278 278 276
268 266 264 263 261 259 258 259 259 261 262 259 258 257 257 260 264 268 270 272 274 276 278 279 280 281 282 284 285 286 285 280 288 283 275 278 286 276 286 274 273 280 283
268 268 268 266 262 261 261 260 260 259 261 260 258 258 258 259 263 266 269 272 274 276 278 279 279 280 282 281 282 282 276 279 284 277 274 276 269 269 270 272 277 280 266
271 269 267 266 265 265 260 258 257 256 256 255 255 256 258 261 263 265 267 268 270 273 275 276 277 278 278 278 278 275 274 277 279 270 261 267 273 273 276 273 268 265 265
269 268 266 264 262 260 258 257 255 253 253 253 254 256 257 258 258 259 261 264 267 270 271 273 276 273 273 278 280 269 271 274 264 254 260 262 262 262 262 262 262 265 269
264 265 264 264 261 257 256 255 254 254 253 252 253 253 255 255 255 257 259 260 264 266 268 272 272 272 273 272 273 264 265 268 258 253 258 258 255 258 262 265 268 270 271
262 265 264 263 261 259 253 250 251 252 250 250 250 250 250 252 253 254 255 259 262 264 268 273 266 263 269 270 262 260 262 262 255 252 254 256 259 262 266 270 272 273 274
261 259 259 260 259 256 255 252 242 246 246 246 246 246 248 249 251 252 252 254 259 262 266 266 266 265 261 262 259 254 257 258 256 255 251 256 260 266 268 270 272 275 277
275 263 259 257 255 254 252 250 248 238 241 243 243 244 245 246 246 247 248 252 257 258 263 269 267 265 251 253 254 252 255 256 257 256 258 261 265 269 271 276 276 277 278
272 263 259 256 253 250 248 247 245 244 236 238 238 240 242 243 244 243 244 250 255 258 260 262 264 259 246 246 253 251 254 253 253 254 259 266 268 271 275 277 279 279 280
272 268 253 241 247 246 244 243 239 241 236 230 231 232 238 240 241 241 242 246 249 252 254 260 258 256 243 249 252 251 249 251 251 258 262 265 269 273 277 277 276 277 280
276 268 259 247 231 237 238 237 237 233 235 225 225 223 224 235 238 240 243 245 248 250 252 256 247 260 251 247 255 248 247 248 254 256 263 269 272 275 274 272 273 276 280
284 272 258 247 234 226 230 231 233 231 229 227 220 223 227 233 236 237 240 244 244 246 246 247 248 246 255 249 248 244 243 247 249 257 266 268 271 271 268 271 273 278 285
290 284 270 245 227 225 220 224 227 229 225 226 223 222 227 231 232 234 237 241 245 248 248 244 242 241 243 250 248 245 246 249 255 265 269 269 270 267 269 271 276 282 284
293 286 281 256 230 220 218 215 220 223 224 223 223 224 225 232 231 232 231 234 239 242 247 249 247 243 243 246 249 253 257 261 266 266 268 272 266 266 268 272 279 282 285
290 304 300 270 241 218 216 210 212 218 224 221 220 222 227 229 228 225 225 230 241 246 246 245 249 248 246 247 250 254 257 259 262 268 270 266 265 270 271 277 280 283 287
286 301 308 276 244 221 209 206 206 214 219 216 217 218 220 223 227 229 230 236 238 242 248 247 245 248 248 249 253 258 260 264 269 266 265 264 269 274 277 278 283 285 290
Height
5709 5711 5713 5715 5716 5717 5719 5721 5723 5724 5725 5726 5726 5727 5727 5728 5730 5730 5729 5728 5726 5724 5724 5722 5721 5721 5719 5717 5715 5713 5710 5708 5708 5707 5705 5703 5700 5698 5695 5692 5690 5689 5687
5700 5702 5703 5705 5706 5706 5707 5709 5711 5713 5715 5716 5717 5717 5717 5718 5718 5718 5717 5717 5716 5716 5714 5713 5712 5711 5708 5706 5704 5702 5700 5697 5696 5695 5692 5691 5689 5687 5684 5682 5680 5678 5676
5691 5693 5693 5694 5695 5697 5698 5699 5699 5701 5703 5705 5706 5707 5706 5706 5707 5706 5705 5706 5705 5705 5704 5703 5702 5701 5698 5695 5693 5690 5688 5686 5683 5682 5680 5678 5677 5674 5672 5671 5669 5667 5666
5683 5684 5684 5686 5686 5687 5687 5689 5688 5690 5691 5692 5693 5694 5695 5695 5696 5697 5697 5697 5696 5696 5695 5694 5692 5689 5686 5683 5680 5678 5676 5674 5672 5670 5668 5667 5664 5662 5661 5659 5657 5656 5654
5672 5673 5674 5675 5676 5677 5678 5680 5681 5682 5683 5683 5685 5685 5687 5687 5688 5687 5687 5686 5686 5685 5684 5681 5679 5677 5674 5672 5669 5666 5664 5662 5660 5658 5656 5655 5653 5651 5649 5647 5646 5644 5643
5657 5659 5662 5663 5663 5664 5665 5667 5668 5669 5670 5670 5672 5673 5675 5676 5676 5676 5675 5674 5673 5672 5671 5670 5668 5667 5664 5661 5658 5656 5654 5651 5649 5647 5645 5644 5641 5639 5637 5636 5634 5634 5633
5642 5642 5643 5646 5648 5649 5651 5653 5654 5655 5656 5657 5658 5659 5660 5661 5662 5662 5661 5660 5661 5661 5660 5659 5658 5655 5653 5650 5649 5646 5643 5640 5638 5636 5634 5631 5629 5627 5626 5624 5623 5623 5622
5625 5626 5627 5629 5629 5631 5634 5634 5635 5636 5638 5640 5642 5643 5644 5646 5647 5648 5648 5649 5650 5649 5649 5647 5645 5644 5642 5639 5637 5635 5632 5629 5627 5625 5622 5619 5618 5617 5616 5615 5613 5613 5613
5611 5610 5610 5612 5613 5616 5618 5619 5621 5623 5625 5627 5628 5630 5631 5633 5635 5636 5637 5637 5637 5636 5635 5634 5633 5631 5629 5628 5626 5624 5622 5619 5616 5614 5611 5609 5608 5607 5605 5605 5604 5604 5605
5597 5596 5595 5596 5597 5599 5601 5603 5605 5607 5609 5613 5614 5615 5617 5619 5621 5622 5623 5623 5624 5623 5623 5621 5621 5619 5617 5616 5615 5613 5611 5609 5606 5604 5601 5600 5599 5597 5596 5595 5595 5595 5597
5580 5579 5579 5580 5581 5583 5585 5587 5589 5592 5594 5597 5598 5600 5603 5605 5607 5609 5609 5610 5610 5610 5610 5609 5608 5607 5605 5604 5603 5602 5600 5599 5597 5595 5593 5591 5590 5589 5589 5588 5588 5589 5590
5562 5562 5562 5562 5564 5566 5568 5570 5573 5576 5578 5582 5584 5586 5588 5591 5593 5595 5596 5597 5597 5597 5597 5597 5596 5594 5594 5593 5592 5591 5590 5589 5588 5587 5585 5584 5583 5582 5582 5581 5582 5583 5584
5544 5543 5544 5545 5546 5548 5550 5553 5556 5559 5563 5566 5569 5572 5573 5576 5579 5581 5582 5583 5583 5584 5585 5584 5584 5583 5583 5582 5581 5580 5580 5579 5579 5578 5577 5576 5576 5576 5576 5576 5577 5578 5579
5526 5525 5526 5529 5529 5531 5533 5536 5540 5544 5546 5550 5553 5556 5559 5562 5564 5567 5569 5570 5571 5571 5572 5573 5573 5572 5572 5572 5571 5571 5571 5571 5571 5570 5570 5569 5569 5570 5571 5571 5572 5572 5572
5506 5506 5506 5508 5511 5513 5516 5519 5523 5526 5530 5533 5537 5540 5544 5548 5551 5554 5556 5557 5559 5559 5560 5561 5561 5561 5561 5561 5561 5561 5562 5562 5563 5563 5563 5563 5564 5564 5565 5565 5565 5565 5565
5487 5487 5487 5489 5491 5494 5497 5502 5506 5510 5514 5518 5522 5526 5530 5534 5538 5540 5543 5545 5547 5548 5549 5548 5548 5549 5550 5551 5552 5552 5553 5553 5554 5555 5556 5556 5557 5558 5558 5558 5558 5558 5558
5465 5467 5468 5469 5473 5476 5480 5483 5488 5493 5498 5503 5508 5512 5515 5520 5524 5528 5531 5533 5535 5536 5537 5536 5537 5537 5539 5541 5542 5544 5544 5545 5546 5547 5548 5549 5550 5550 5550 5550 5550 5549 5549
5439 5444 5447 5449 5453 5457 5462 5466 5471 5475 5482 5488 5493 5497 5502 5505 5510 5515 5518 5521 5523 5524 5526 5526 5526 5526 5528 5531 5533 5534 5536 5537 5538 5539 5540 5541 5541 5542 5541 5541 5540 5539 5538
5412 5416 5422 5428 5433 5439 5443 5449 5454 5459 5465 5472 5477 5483 5488 5493 5497 5502 5506 5509 5511 5513 5515 5516 5516 5517 5519 5521 5523 5525 5526 5528 5529 5531 5531 5532 5532 5533 5532 5531 5530 5529 5528
5390 5392 5395 5401 5410 5418 5425 5431 5437 5443 5449 5456 5464 5470 5474 5480 5484 5490 5494 5497 5500 5502 5504 5506 5506 5507 5510 5512 5514 5516 5517 5519 5521 5521 5522 5522 5523 5523 5522 5521 5520 5519 5518
5368 5368 5370 5377 5384 5393 5405 5414 5420 5428 5434 5441 5450 5457 5461 5466 5472 5478 5482 5485 5489 5491 5494 5496 5497 5498 5499 5502 5504 5506 5508 5510 5511 5512 5513 5513 5513 5512 5511 5510 5510 5509 5508
5345 5344 5346 5351 5360 5370 5382 5394 5404 5412 5420 5427 5434 5441 5447 5453 5459 5465 5470 5473 5477 5481 5483 5486 5488 5489 5490 5492 5494 5496 5498 5500 5502 5502 5503 5503 5502 5502 5501 5501 5500 5499 5497
5329 5327 5326 5329 5336 5347 5359 5374 5387 5396 5404 5412 5420 5427 5434 5441 5448 5454 5458 5462 5467 5470 5473 5475 5477 5479 5482 5484 5485 5487 5489 5491 5492 5492 5492 5492 5491 5491 5491 5490 5489 5488 5486
5317 5314 5312 5312 5317 5327 5340 5355 5370 5381 5390 5399 5407 5415 5423 5429 5437 5443 5448 5452 5456 5460 5463 5465 5467 5469 5472 5474 5476 5478 5480 5481 5481 5482 5482 5481 5481 5481 5481 5480 5479 5477 5474
5307 5304 5301 5299 5302 5311 5325 5339 5355 5368 5378 5387 5395 5403 5411 5418 5425 5431 5438 5442 5447 5451 5454 5456 5458 5460 5463 5465 5467 5468 5470 5471 5471 5472 5472 5471 5471 5471 5470 5469 5467 5465 5462
5298 5295 5292 5289 5292 5300 5312 5328 5343 5356 5368 5376 5385 5394 5401 5408 5415 5422 5428 5432 5436 5441 5444 5447 5450 5452 5454 5456 5457 5458 5460 5461 5462 5462 5461 5462 5462 5461 5459 5457 5455 5452 5449